Wetterdaten: Freitag, 21.05.2010
Datum Zeit Temp. A. Feuchte A. Luftdruck Regen Wind Richtung Richtung Sonnenschein UV Solar Windben
21.05.2010 00:00 10,7 C 76 % 1028,5 hPa 0,0 mm 0,0 km/h (0 Bft) N 0 0 min 0 UV-I 0 W/m 0,0 km/h (0 Bft)
21.05.2010 00:10 10,4 C 77 % 1028,5 hPa 0,0 mm 0,0 km/h (0 Bft) N 0 0 min 0 UV-I 0 W/m 0,0 km/h (0 Bft)
21.05.2010 00:20 10,2 C 78 % 1028,4 hPa 0,0 mm 0,0 km/h (0 Bft) N 0 0 min 0 UV-I 0 W/m 0,0 km/h (0 Bft)
21.05.2010 00:30 9,9 C 79 % 1028,4 hPa 0,0 mm 0,0 km/h (0 Bft) N 0 0 min 0 UV-I 0 W/m 0,0 km/h (0 Bft)
21.05.2010 00:40 9,7 C 79 % 1028,4 hPa 0,0 mm 0,0 km/h (0 Bft) N 0 0 min 0 UV-I 0 W/m 0,0 km/h (0 Bft)
21.05.2010 00:50 9,5 C 80 % 1028,5 hPa 0,0 mm 0,0 km/h (0 Bft) N 0 0 min 0 UV-I 0 W/m 0,0 km/h (0 Bft)
21.05.2010 01:00 9,3 C 80 % 1028,5 hPa 0,0 mm 0,0 km/h (0 Bft) N 0 0 min 0 UV-I 0 W/m 0,0 km/h (0 Bft)
21.05.2010 01:10 9,2 C 81 % 1028,5 hPa 0,0 mm 0,0 km/h (0 Bft) N 0 0 min 0 UV-I 0 W/m 0,0 km/h (0 Bft)
21.05.2010 01:20 8,9 C 81 % 1028,5 hPa 0,0 mm 0,0 km/h (0 Bft) N 0 0 min 0 UV-I 0 W/m 0,0 km/h (0 Bft)
21.05.2010 01:30 8,8 C 81 % 1028,6 hPa 0,0 mm 0,0 km/h (0 Bft) N 0 0 min 0 UV-I 0 W/m 0,0 km/h (0 Bft)
21.05.2010 01:40 8,6 C 81 % 1028,5 hPa 0,0 mm 0,0 km/h (0 Bft) N 0 0 min 0 UV-I 0 W/m 0,0 km/h (0 Bft)
21.05.2010 01:50 8,4 C 82 % 1028,5 hPa 0,0 mm 0,0 km/h (0 Bft) N 0 0 min 0 UV-I 0 W/m 0,0 km/h (0 Bft)
21.05.2010 02:00 8,2 C 82 % 1028,4 hPa 0,0 mm 0,0 km/h (0 Bft) N 0 0 min 0 UV-I 0 W/m 0,0 km/h (0 Bft)
21.05.2010 02:10 8,1 C 82 % 1028,3 hPa 0,0 mm 0,0 km/h (0 Bft) N 0 0 min 0 UV-I 0 W/m 0,0 km/h (0 Bft)
21.05.2010 02:20 7,9 C 82 % 1028,3 hPa 0,0 mm 0,0 km/h (0 Bft) N 0 0 min 0 UV-I 0 W/m 0,0 km/h (0 Bft)
21.05.2010 02:30 7,7 C 82 % 1028,2 hPa 0,0 mm 0,0 km/h (0 Bft) N 0 0 min 0 UV-I 0 W/m 0,0 km/h (0 Bft)
21.05.2010 02:40 7,5 C 82 % 1028,2 hPa 0,0 mm 0,0 km/h (0 Bft) N 0 0 min 0 UV-I 0 W/m 0,0 km/h (0 Bft)
21.05.2010 02:50 7,3 C 82 % 1028,1 hPa 0,0 mm 0,0 km/h (0 Bft) N 0 0 min 0 UV-I 0 W/m 0,0 km/h (0 Bft)
21.05.2010 03:00 7,2 C 83 % 1028,1 hPa 0,0 mm 0,0 km/h (0 Bft) O-SO 112 0 min 0 UV-I 0 W/m 3,2 km/h (1 Bft)
21.05.2010 03:10 7,1 C 84 % 1028,0 hPa 0,0 mm 0,0 km/h (0 Bft) O-SO 112 0 min 0 UV-I 0 W/m 1,6 km/h (1 Bft)
21.05.2010 03:20 6,9 C 84 % 1028,0 hPa 0,0 mm 0,0 km/h (0 Bft) O-SO 112 0 min 0 UV-I 0 W/m 3,2 km/h (1 Bft)
21.05.2010 03:30 6,8 C 84 % 1028,1 hPa 0,0 mm 0,0 km/h (0 Bft) N 0 0 min 0 UV-I 0 W/m 0,0 km/h (0 Bft)
21.05.2010 03:40 6,7 C 85 % 1028,1 hPa 0,0 mm 0,0 km/h (0 Bft) O-SO 112 0 min 0 UV-I 0 W/m 1,6 km/h (1 Bft)
21.05.2010 03:50 6,7 C 85 % 1028,1 hPa 0,0 mm 0,0 km/h (0 Bft) O-SO 112 0 min 0 UV-I 0 W/m 1,6 km/h (1 Bft)
21.05.2010 04:00 6,6 C 85 % 1028,0 hPa 0,0 mm 0,0 km/h (0 Bft) N 0 0 min 0 UV-I 0 W/m 0,0 km/h (0 Bft)
21.05.2010 04:10 6,6 C 86 % 1028,1 hPa 0,0 mm 0,0 km/h (0 Bft) N 0 0 min 0 UV-I 0 W/m 0,0 km/h (0 Bft)
21.05.2010 04:20 6,5 C 86 % 1028,0 hPa 0,0 mm 0,0 km/h (0 Bft) N 0 0 min 0 UV-I 0 W/m 0,0 km/h (0 Bft)
21.05.2010 04:30 6,4 C 86 % 1028,0 hPa 0,0 mm 0,0 km/h (0 Bft) N 0 0 min 0 UV-I 0 W/m 0,0 km/h (0 Bft)
21.05.2010 04:40 6,4 C 86 % 1028,1 hPa 0,0 mm 0,0 km/h (0 Bft) N 0 0 min 0 UV-I 0 W/m 0,0 km/h (0 Bft)
21.05.2010 04:50 6,4 C 86 % 1028,1 hPa 0,0 mm 0,0 km/h (0 Bft) N 0 0 min 0 UV-I 0 W/m 0,0 km/h (0 Bft)
21.05.2010 05:00 6,4 C 87 % 1028,1 hPa 0,0 mm 0,0 km/h (0 Bft) N 0 0 min 0 UV-I 0 W/m 0,0 km/h (0 Bft)
21.05.2010 05:10 6,5 C 87 % 1028,1 hPa 0,0 mm 0,0 km/h (0 Bft) O-SO 112 0 min 0 UV-I 0 W/m 1,6 km/h (1 Bft)
21.05.2010 05:20 6,6 C 92 % 1028,1 hPa 0,0 mm 0,0 km/h (0 Bft) N 0 0 min 0 UV-I 0 W/m 0,0 km/h (0 Bft)
21.05.2010 05:30 6,6 C 88 % 1028,1 hPa 0,0 mm 0,0 km/h (0 Bft) N 0 0 min 0 UV-I 0 W/m 0,0 km/h (0 Bft)
21.05.2010 05:40 6,7 C 88 % 1028,2 hPa 0,0 mm 0,0 km/h (0 Bft) N 0 0 min 0 UV-I 5 W/m 0,0 km/h (0 Bft)
21.05.2010 05:50 6,7 C 88 % 1028,2 hPa 0,0 mm 0,0 km/h (0 Bft) N 0 0 min 0 UV-I 11 W/m 0,0 km/h (0 Bft)
21.05.2010 06:00 6,7 C 88 % 1028,2 hPa 0,0 mm 0,0 km/h (0 Bft) N 0 0 min 0 UV-I 14 W/m 0,0 km/h (0 Bft)
21.05.2010 06:10 6,8 C 88 % 1028,2 hPa 0,0 mm 0,0 km/h (0 Bft) N 0 0 min 0 UV-I 19 W/m 0,0 km/h (0 Bft)
21.05.2010 06:20 6,8 C 88 % 1028,3 hPa 0,0 mm 0,0 km/h (0 Bft) N 0 0 min 0 UV-I 30 W/m 0,0 km/h (0 Bft)
21.05.2010 06:30 6,8 C 89 % 1028,3 hPa 0,0 mm 0,0 km/h (0 Bft) N 0 0 min 0 UV-I 33 W/m 0,0 km/h (0 Bft)
21.05.2010 06:40 6,9 C 89 % 1028,3 hPa 0,0 mm 0,0 km/h (0 Bft) N 0 0 min 0 UV-I 39 W/m 0,0 km/h (0 Bft)
21.05.2010 06:50 7,0 C 89 % 1028,4 hPa 0,0 mm 0,0 km/h (0 Bft) N 0 0 min 0 UV-I 42 W/m 0,0 km/h (0 Bft)
21.05.2010 07:00 7,1 C 89 % 1028,4 hPa 0,0 mm 0,0 km/h (0 Bft) N 0 0 min 0 UV-I 46 W/m 0,0 km/h (0 Bft)
21.05.2010 07:10 7,2 C 89 % 1028,5 hPa 0,0 mm 0,0 km/h (0 Bft) N 0 0 min 0 UV-I 81 W/m 0,0 km/h (0 Bft)
21.05.2010 07:20 7,2 C 89 % 1028,6 hPa 0,0 mm 0,0 km/h (0 Bft) N 0 10 min 1 UV-I 160 W/m 0,0 km/h (0 Bft)
21.05.2010 07:30 7,3 C 90 % 1028,6 hPa 0,0 mm 0,0 km/h (0 Bft) O-SO 112 10 min 1 UV-I 204 W/m 1,6 km/h (1 Bft)
21.05.2010 07:40 7,5 C 90 % 1028,5 hPa 0,0 mm 0,0 km/h (0 Bft) O-SO 112 10 min 1 UV-I 230 W/m 1,6 km/h (1 Bft)
21.05.2010 07:50 7,8 C 90 % 1028,6 hPa 0,0 mm 0,0 km/h (0 Bft) O-SO 112 10 min 1 UV-I 264 W/m 1,6 km/h (1 Bft)
21.05.2010 08:00 8,3 C 90 % 1028,6 hPa 0,0 mm 0,0 km/h (0 Bft) O-SO 120 10 min 1 UV-I 294 W/m 0,0 km/h (0 Bft)
21.05.2010 08:10 8,6 C 91 % 1028,6 hPa 0,0 mm 0,0 km/h (0 Bft) O-SO 112 10 min 1 UV-I 323 W/m 1,6 km/h (1 Bft)
21.05.2010 08:20 9,2 C 91 % 1028,5 hPa 0,0 mm 0,0 km/h (0 Bft) O-SO 112 10 min 1 UV-I 357 W/m 3,2 km/h (1 Bft)
21.05.2010 08:30 9,7 C 90 % 1028,6 hPa 0,0 mm 0,0 km/h (0 Bft) O-SO 112 10 min 2 UV-I 385 W/m 1,6 km/h (1 Bft)
21.05.2010 08:40 10,3 C 81 % 1028,6 hPa 0,0 mm 0,0 km/h (0 Bft) NW 315 10 min 2 UV-I 413 W/m 4,8 km/h (1 Bft)
21.05.2010 08:50 11,4 C 75 % 1028,6 hPa 0,0 mm 0,0 km/h (0 Bft) NW 315 10 min 2 UV-I 439 W/m 3,2 km/h (1 Bft)
21.05.2010 09:00 11,8 C 73 % 1028,6 hPa 0,0 mm 0,0 km/h (0 Bft) NW 315 10 min 2 UV-I 469 W/m 4,8 km/h (1 Bft)
21.05.2010 09:10 12,2 C 67 % 1028,6 hPa 0,0 mm 0,0 km/h (0 Bft) NW 315 10 min 2 UV-I 496 W/m 3,2 km/h (1 Bft)
21.05.2010 09:20 12,7 C 68 % 1028,6 hPa 0,0 mm 0,0 km/h (0 Bft) NW 315 10 min 3 UV-I 526 W/m 4,8 km/h (1 Bft)
21.05.2010 09:30 13,1 C 64 % 1028,5 hPa 0,0 mm 0,0 km/h (0 Bft) N-NW 337 10 min 3 UV-I 552 W/m 4,8 km/h (1 Bft)
21.05.2010 09:40 13,3 C 65 % 1028,4 hPa 0,0 mm 0,0 km/h (0 Bft) NW 315 10 min 3 UV-I 578 W/m 1,6 km/h (1 Bft)
21.05.2010 09:50 13,6 C 66 % 1028,5 hPa 0,0 mm 1,6 km/h (1 Bft) W-NW 292 10 min 3 UV-I 598 W/m 6,4 km/h (2 Bft)
21.05.2010 10:00 13,8 C 63 % 1028,5 hPa 0,0 mm 1,6 km/h (1 Bft) W 270 10 min 4 UV-I 629 W/m 6,4 km/h (2 Bft)
21.05.2010 10:10 14,2 C 64 % 1028,4 hPa 0,0 mm 0,0 km/h (0 Bft) N 360 10 min 4 UV-I 652 W/m 6,4 km/h (2 Bft)
21.05.2010 10:20 14,5 C 63 % 1028,4 hPa 0,0 mm 1,6 km/h (1 Bft) W-NW 292 10 min 4 UV-I 675 W/m 6,4 km/h (2 Bft)
21.05.2010 10:30 14,8 C 62 % 1028,4 hPa 0,0 mm 1,6 km/h (1 Bft) W-NW 292 10 min 4 UV-I 696 W/m 6,4 km/h (2 Bft)
21.05.2010 10:40 14,9 C 61 % 1028,4 hPa 0,0 mm 1,6 km/h (1 Bft) W 270 10 min 5 UV-I 717 W/m 8,0 km/h (2 Bft)
21.05.2010 10:50 15,5 C 58 % 1028,3 hPa 0,0 mm 1,6 km/h (1 Bft) N-NW 337 10 min 5 UV-I 744 W/m 8,0 km/h (2 Bft)
21.05.2010 11:00 15,6 C 58 % 1028,2 hPa 0,0 mm 1,6 km/h (1 Bft) NW 315 10 min 5 UV-I 759 W/m 9,7 km/h (2 Bft)
21.05.2010 11:10 16,0 C 55 % 1028,1 hPa 0,0 mm 1,6 km/h (1 Bft) N-NO 22 10 min 5 UV-I 782 W/m 9,7 km/h (2 Bft)
21.05.2010 11:20 16,3 C 56 % 1028,1 hPa 0,0 mm 1,6 km/h (1 Bft) N 360 10 min 6 UV-I 805 W/m 8,0 km/h (2 Bft)
21.05.2010 11:30 16,4 C 56 % 1028,0 hPa 0,0 mm 1,6 km/h (1 Bft) W 270 10 min 6 UV-I 821 W/m 11,3 km/h (2 Bft)
21.05.2010 11:40 16,8 C 54 % 1028,0 hPa 0,0 mm 3,2 km/h (1 Bft) N-NO 22 10 min 6 UV-I 835 W/m 9,7 km/h (2 Bft)
21.05.2010 11:50 17,2 C 53 % 1027,9 hPa 0,0 mm 4,8 km/h (1 Bft) W 270 10 min 6 UV-I 846 W/m 14,5 km/h (3 Bft)
21.05.2010 12:00 16,9 C 54 % 1027,9 hPa 0,0 mm 1,6 km/h (1 Bft) W 270 10 min 6 UV-I 853 W/m 9,7 km/h (2 Bft)
21.05.2010 12:10 17,2 C 53 % 1027,8 hPa 0,0 mm 3,2 km/h (1 Bft) W 270 10 min 6 UV-I 868 W/m 9,7 km/h (2 Bft)
21.05.2010 12:20 17,4 C 55 % 1027,7 hPa 0,0 mm 3,2 km/h (1 Bft) W-NW 292 10 min 6 UV-I 884 W/m 19,3 km/h (3 Bft)
21.05.2010 12:30 17,9 C 52 % 1027,7 hPa 0,0 mm 1,6 km/h (1 Bft) W 270 10 min 6 UV-I 888 W/m 9,7 km/h (2 Bft)
21.05.2010 12:40 17,9 C 53 % 1027,6 hPa 0,0 mm 1,6 km/h (1 Bft) W-NW 292 10 min 7 UV-I 896 W/m 11,3 km/h (2 Bft)
21.05.2010 12:50 18,4 C 51 % 1027,5 hPa 0,0 mm 4,8 km/h (1 Bft) W 270 10 min 7 UV-I 909 W/m 11,3 km/h (2 Bft)
21.05.2010 13:00 18,7 C 50 % 1027,5 hPa 0,0 mm 3,2 km/h (1 Bft) W 270 10 min 7 UV-I 905 W/m 14,5 km/h (3 Bft)
21.05.2010 13:10 18,9 C 51 % 1027,4 hPa 0,0 mm 3,2 km/h (1 Bft) W 270 10 min 7 UV-I 921 W/m 11,3 km/h (2 Bft)
21.05.2010 13:20 19,4 C 49 % 1027,4 hPa 0,0 mm 3,2 km/h (1 Bft) W-NW 292 10 min 7 UV-I 921 W/m 11,3 km/h (2 Bft)
21.05.2010 13:30 19,3 C 47 % 1027,4 hPa 0,0 mm 3,2 km/h (1 Bft) W 270 10 min 7 UV-I 926 W/m 14,5 km/h (3 Bft)
21.05.2010 13:40 19,6 C 47 % 1027,2 hPa 0,0 mm 1,6 km/h (1 Bft) W-SW 247 10 min 7 UV-I 925 W/m 9,7 km/h (2 Bft)
21.05.2010 13:50 19,9 C 47 % 1027,2 hPa 0,0 mm 3,2 km/h (1 Bft) W-SW 247 10 min 7 UV-I 921 W/m 14,5 km/h (3 Bft)
21.05.2010 14:00 20,0 C 46 % 1027,2 hPa 0,0 mm 6,4 km/h (2 Bft) W 270 10 min 7 UV-I 921 W/m 19,3 km/h (3 Bft)
21.05.2010 14:10 19,8 C 50 % 1027,2 hPa 0,0 mm 4,8 km/h (1 Bft) W-NW 292 10 min 6 UV-I 912 W/m 16,1 km/h (3 Bft)
21.05.2010 14:20 20,3 C 47 % 1027,1 hPa 0,0 mm 4,8 km/h (1 Bft) W 270 10 min 6 UV-I 916 W/m 19,3 km/h (3 Bft)
21.05.2010 14:30 20,3 C 49 % 1026,9 hPa 0,0 mm 6,4 km/h (2 Bft) W 270 10 min 6 UV-I 891 W/m 24,1 km/h (4 Bft)
21.05.2010 14:40 20,7 C 48 % 1026,9 hPa 0,0 mm 3,2 km/h (1 Bft) N-NO 22 10 min 6 UV-I 919 W/m 11,3 km/h (2 Bft)
21.05.2010 14:50 20,5 C 50 % 1026,8 hPa 0,0 mm 3,2 km/h (1 Bft) W-NW 292 10 min 6 UV-I 942 W/m 16,1 km/h (3 Bft)
21.05.2010 15:00 21,2 C 48 % 1026,8 hPa 0,0 mm 4,8 km/h (1 Bft) NW 315 10 min 6 UV-I 951 W/m 16,1 km/h (3 Bft)
21.05.2010 15:10 21,0 C 48 % 1026,6 hPa 0,0 mm 4,8 km/h (1 Bft) W-NW 292 10 min 6 UV-I 918 W/m 16,1 km/h (3 Bft)
21.05.2010 15:20 21,2 C 50 % 1026,5 hPa 0,0 mm 4,8 km/h (1 Bft) NW 315 10 min 5 UV-I 907 W/m 17,7 km/h (3 Bft)
21.05.2010 15:30 21,4 C 48 % 1026,4 hPa 0,0 mm 3,2 km/h (1 Bft) W-NW 292 10 min 5 UV-I 919 W/m 14,5 km/h (3 Bft)
21.05.2010 15:40 21,2 C 51 % 1026,4 hPa 0,0 mm 1,6 km/h (1 Bft) NO 45 10 min 5 UV-I 895 W/m 11,3 km/h (2 Bft)
21.05.2010 15:50 21,7 C 51 % 1026,4 hPa 0,0 mm 4,8 km/h (1 Bft) W-NW 292 10 min 5 UV-I 896 W/m 14,5 km/h (3 Bft)
21.05.2010 16:00 20,9 C 51 % 1026,2 hPa 0,0 mm 4,1 km/h (1 Bft) W-NW 301 0 min 3 UV-I 340 W/m 6,4 km/h (2 Bft)
21.05.2010 16:10 21,3 C 48 % 1026,2 hPa 0,0 mm 4,8 km/h (1 Bft) W-NW 292 10 min 4 UV-I 926 W/m 17,7 km/h (3 Bft)
21.05.2010 16:20 21,5 C 50 % 1026,2 hPa 0,0 mm 4,8 km/h (1 Bft) W 270 10 min 4 UV-I 837 W/m 14,5 km/h (3 Bft)
21.05.2010 16:30 21,0 C 51 % 1026,1 hPa 0,0 mm 4,8 km/h (1 Bft) W 270 10 min 3 UV-I 547 W/m 19,3 km/h (3 Bft)
21.05.2010 16:40 20,6 C 52 % 1026,1 hPa 0,0 mm 3,2 km/h (1 Bft) NW 315 0 min 3 UV-I 323 W/m 12,9 km/h (3 Bft)
21.05.2010 16:50 20,8 C 52 % 1026,0 hPa 0,0 mm 3,2 km/h (1 Bft) W 270 10 min 3 UV-I 712 W/m 11,3 km/h (2 Bft)
21.05.2010 17:00 20,4 C 51 % 1026,0 hPa 0,0 mm 3,2 km/h (1 Bft) NW 315 0 min 3 UV-I 301 W/m 11,3 km/h (2 Bft)
21.05.2010 17:10 20,3 C 52 % 1025,9 hPa 0,0 mm 1,6 km/h (1 Bft) N-NW 337 0 min 2 UV-I 251 W/m 8,0 km/h (2 Bft)
21.05.2010 17:20 20,2 C 53 % 1025,8 hPa 0,0 mm 1,6 km/h (1 Bft) N-NO 22 0 min 2 UV-I 183 W/m 4,8 km/h (1 Bft)
21.05.2010 17:30 20,2 C 53 % 1025,7 hPa 0,0 mm 1,6 km/h (1 Bft) N 360 0 min 1 UV-I 188 W/m 4,8 km/h (1 Bft)
21.05.2010 17:40 20,2 C 52 % 1025,7 hPa 0,0 mm 0,0 km/h (0 Bft) N 360 0 min 2 UV-I 260 W/m 6,4 km/h (2 Bft)
21.05.2010 17:50 20,1 C 53 % 1025,7 hPa 0,0 mm 1,6 km/h (1 Bft) W-NW 292 0 min 1 UV-I 193 W/m 8,0 km/h (2 Bft)
21.05.2010 18:00 20,4 C 51 % 1025,6 hPa 0,0 mm 3,2 km/h (1 Bft) W-NW 292 10 min 2 UV-I 522 W/m 9,7 km/h (2 Bft)
21.05.2010 18:10 20,8 C 52 % 1025,5 hPa 0,0 mm 1,6 km/h (1 Bft) NW 315 10 min 1 UV-I 548 W/m 8,0 km/h (2 Bft)
21.05.2010 18:20 20,6 C 53 % 1025,5 hPa 0,0 mm 1,6 km/h (1 Bft) NW 315 10 min 1 UV-I 563 W/m 9,7 km/h (2 Bft)
21.05.2010 18:30 21,1 C 52 % 1025,5 hPa 0,0 mm 3,2 km/h (1 Bft) W-NW 292 10 min 1 UV-I 550 W/m 9,7 km/h (2 Bft)
21.05.2010 18:40 21,3 C 52 % 1025,5 hPa 0,0 mm 4,8 km/h (1 Bft) W 270 10 min 1 UV-I 503 W/m 12,9 km/h (3 Bft)
21.05.2010 18:50 20,9 C 53 % 1025,5 hPa 0,0 mm 3,2 km/h (1 Bft) W 270 10 min 1 UV-I 237 W/m 14,5 km/h (3 Bft)
21.05.2010 19:00 20,8 C 52 % 1025,6 hPa 0,0 mm 1,6 km/h (1 Bft) W-NW 292 10 min 1 UV-I 425 W/m 9,7 km/h (2 Bft)
21.05.2010 19:10 21,3 C 51 % 1025,4 hPa 0,0 mm 4,8 km/h (1 Bft) W-NW 292 10 min 1 UV-I 396 W/m 16,1 km/h (3 Bft)
21.05.2010 19:20 21,2 C 51 % 1025,4 hPa 0,0 mm 3,2 km/h (1 Bft) W-NW 292 10 min 1 UV-I 327 W/m 11,3 km/h (2 Bft)
21.05.2010 19:30 20,8 C 52 % 1025,3 hPa 0,0 mm 4,8 km/h (1 Bft) W 270 10 min 1 UV-I 294 W/m 11,3 km/h (2 Bft)
21.05.2010 19:40 20,6 C 54 % 1025,4 hPa 0,0 mm 3,2 km/h (1 Bft) W-NW 292 10 min 1 UV-I 246 W/m 9,7 km/h (2 Bft)
21.05.2010 19:50 20,0 C 55 % 1025,4 hPa 0,0 mm 1,6 km/h (1 Bft) W-NW 292 10 min 1 UV-I 158 W/m 6,4 km/h (2 Bft)
21.05.2010 20:00 19,7 C 56 % 1025,4 hPa 0,0 mm 1,6 km/h (1 Bft) W-NW 292 10 min 0 UV-I 134 W/m 4,8 km/h (1 Bft)
21.05.2010 20:10 19,4 C 58 % 1025,3 hPa 0,0 mm 0,0 km/h (0 Bft) W-NW 292 0 min 0 UV-I 47 W/m 4,8 km/h (1 Bft)
21.05.2010 20:20 19,2 C 58 % 1025,3 hPa 0,0 mm 0,0 km/h (0 Bft) W-NW 292 0 min 0 UV-I 42 W/m 1,6 km/h (1 Bft)
21.05.2010 20:30 19,1 C 58 % 1025,3 hPa 0,0 mm 0,0 km/h (0 Bft) W-NW 292 0 min 0 UV-I 35 W/m 1,6 km/h (1 Bft)
21.05.2010 20:40 18,8 C 59 % 1025,4 hPa 0,0 mm 0,0 km/h (0 Bft) W-NW 292 0 min 0 UV-I 30 W/m 1,6 km/h (1 Bft)
21.05.2010 20:50 18,6 C 60 % 1025,4 hPa 0,0 mm 0,0 km/h (0 Bft) W-NW 292 10 min 0 UV-I 30 W/m 1,6 km/h (1 Bft)
21.05.2010 21:00 18,4 C 59 % 1025,4 hPa 0,0 mm 0,0 km/h (0 Bft) W-NW 292 10 min 0 UV-I 28 W/m 1,6 km/h (1 Bft)
21.05.2010 21:10 18,3 C 60 % 1025,4 hPa 0,0 mm 0,0 km/h (0 Bft) W-NW 292 0 min 0 UV-I 16 W/m 1,6 km/h (1 Bft)
21.05.2010 21:20 18,1 C 61 % 1025,5 hPa 0,0 mm 0,0 km/h (0 Bft) W-NW 292 0 min 0 UV-I 9 W/m 3,2 km/h (1 Bft)
21.05.2010 21:30 17,7 C 61 % 1025,4 hPa 0,0 mm 0,0 km/h (0 Bft) W-NW 292 0 min 0 UV-I 0 W/m 1,6 km/h (1 Bft)
21.05.2010 21:40 17,2 C 65 % 1025,5 hPa 0,0 mm 0,0 km/h (0 Bft) W-NW 292 0 min 0 UV-I 0 W/m 1,6 km/h (1 Bft)
21.05.2010 21:50 16,5 C 66 % 1025,6 hPa 0,0 mm 0,0 km/h (0 Bft) N 360 0 min 0 UV-I 0 W/m 6,4 km/h (2 Bft)
21.05.2010 22:00 16,4 C 62 % 1025,7 hPa 0,0 mm 1,6 km/h (1 Bft) N 360 0 min 0 UV-I 0 W/m 4,8 km/h (1 Bft)
21.05.2010 22:10 16,3 C 61 % 1025,7 hPa 0,0 mm 0,0 km/h (0 Bft) N 360 0 min 0 UV-I 0 W/m 3,2 km/h (1 Bft)
21.05.2010 22:20 16,1 C 60 % 1025,8 hPa 0,0 mm 0,0 km/h (0 Bft) N 360 0 min 0 UV-I 0 W/m 4,8 km/h (1 Bft)
21.05.2010 22:30 15,8 C 61 % 1025,8 hPa 0,0 mm 0,0 km/h (0 Bft) N 360 0 min 0 UV-I 0 W/m 3,2 km/h (1 Bft)
21.05.2010 22:40 15,4 C 64 % 1025,9 hPa 0,0 mm 0,0 km/h (0 Bft) N 360 0 min 0 UV-I 0 W/m 1,6 km/h (1 Bft)
21.05.2010 22:50 14,9 C 63 % 1025,9 hPa 0,0 mm 0,0 km/h (0 Bft) N 360 0 min 0 UV-I 0 W/m 1,6 km/h (1 Bft)
21.05.2010 23:00 14,8 C 61 % 1026,0 hPa 0,0 mm 0,0 km/h (0 Bft) N 360 0 min 0 UV-I 0 W/m 4,8 km/h (1 Bft)
21.05.2010 23:10 14,6 C 61 % 1025,9 hPa 0,0 mm 0,0 km/h (0 Bft) N 360 0 min 0 UV-I 0 W/m 3,2 km/h (1 Bft)
21.05.2010 23:20 14,1 C 63 % 1026,0 hPa 0,0 mm 0,0 km/h (0 Bft) N 360 0 min 0 UV-I 0 W/m 1,6 km/h (1 Bft)
21.05.2010 23:30 13,6 C 66 % 1026,0 hPa 0,0 mm 0,0 km/h (0 Bft) N 0 0 min 0 UV-I 0 W/m 0,0 km/h (0 Bft)
21.05.2010 23:40 13,3 C 67 % 1025,9 hPa 0,0 mm 0,0 km/h (0 Bft) N 0 0 min 0 UV-I 0 W/m 0,0 km/h (0 Bft)
21.05.2010 23:50 12,9 C 69 % 1026,0 hPa 0,0 mm 0,0 km/h (0 Bft) N 0 0 min 0 UV-I 0 W/m 0,0 km/h (0 Bft)
_ Min-Zeit 04:20 14:00 19:30 - 00:00 - - - - - 00:00
Minimum _ 6,4 C 46 % 1025,3 hPa - 0,0 km/h (0 Bft) - - - - - 0,0 km/h (0 Bft)
_ Max-Zeit 15:50 05:20 01:30 00:00 14:00 - - 07:20 13:20 15:00 14:30
Maximum _ 22,1 C 92 % 1028,6 hPa 0,0 mm 6,4 km/h
W (2 Bft)
- - 10 min 7 UV-I 951 W/m 24,1 km/h
W-SW (4 Bft)
Durchschnitt _ 14,3 C 67 % 1027,2 hPa #0,0 mm 1,3 km/h (1 Bft) W-NW - #11:50 h 4 UV-I 501 W/m 5,7 km/h (1 Bft)